Simultaneous Nadir Overpasses (SNOs) Predictions

Prediction of SNOs between GOES-17 and TERRA Satellite Orbit:

Table of predicted SNOs for the next 14.0 days since TLE Epoch: 4/23/2022
Index Date Time (GOES-17) GOES-17 Lat,Lon TERRA Lat,Lon Distance(km) Time Diff (sec)
1 04/23/2022 07:45:54 -0.05,-137.18 -0.84,-140.87 418.94 80
2 04/25/2022 07:33:40 -0.05,-137.19 -0.21,-137.92 83.08 80
3 04/27/2022 07:18:46 -0.04,-137.19 0.44,-134.97 252.92 80
4 04/27/2022 19:40:01 0.04,-137.19 0.64,-140.13 333.12 80
5 04/29/2022 19:30:26 0.04,-137.19 0.04,-137.17 2.77 80
6 05/01/2022 19:18:11 0.04,-137.19 -0.57,-134.21 337.84 80
7 05/02/2022 07:39:35 -0.04,-137.18 -0.50,-139.41 253.59 80
8 05/04/2022 07:24:40 -0.03,-137.16 0.13,-136.45 80.66 80
9 05/06/2022 07:12:25 -0.03,-137.14 0.77,-133.50 414.21 80
10 05/06/2022 19:33:39 0.02,-137.14 0.36,-138.65 172.65 80
